Weather History for K2I0 - February, 2014

Change the Weather History Date:

Thursday, February 13, 2014

  Actual Average (KOWB) Record (KOWB)
Temperature  
Mean Temperature 30 °F -  
Max Temperature 42 °F 44 °F 80 °F (1962)
Min Temperature 17 °F 26 °F -3 °F (1986)
Degree Days  
Heating Degree Days 36    
Moisture  
Dew Point 21 °F    
Average Humidity 67    
Maximum Humidity 91    
Minimum Humidity 38    
Precipitation  
Precipitation 0.00 in - - ()
Sea Level Pressure  
Sea Level Pressure 29.88 in    
Wind  
Wind Speed 4 mph (WSW)    
Max Wind Speed 14 mph    
Max Gust Speed 17 mph    
Visibility 9 miles    
Events      
Averages and records for this station are not official NWS values.
T = Trace of Precipitation, MM = Missing Value Source: NWS Daily Summary

Daily Weather History Graph

Daily Weather History Graph

Search for Another Location

Airport or City:

Trip Planner

Search our weather history database for the weather conditions in past years. The results will help you decide how hot, cold, wet, or windy it might be!

Date:

Astronomy

Feb. 13, 2014 Rise Set
Actual Time 6:40 AM CST 5:27 PM CST
Civil Twilight 6:14 AM CST 5:53 PM CST
Nautical Twilight 5:43 AM CST 6:24 PM CST
Astronomical Twilight 5:13 AM CST 6:54 PM CST
Moon 4:35 PM CST (2/13) 5:33 AM CST (2/13)
Length of Visible Light 11h 39m
Length of Day
10h 46m
Waxing Gibbous, 99% of the Moon is Illuminated
Feb 13
Waxing Gibbous
Feb 14
Full
Feb 22
Last Quarter
Mar 1
New
Mar 8
First Quarter

Hourly Weather History & Observations

Time (CST) Temp. Windchill Dew Point Humidity Pressure Visibility Wind Dir Wind Speed Gust Speed Precip Events Conditions
12:15 AM 22.8 °F 18.2 °F 18.5 °F 83% 29.97 in 7.0 mi North 3.5 mph - N/A   Clear
12:35 AM 24.1 °F 17.0 °F 18.9 °F 80% 29.96 in 10.0 mi North 5.8 mph - N/A   Clear
12:55 AM 24.6 °F 18.8 °F 19.2 °F 80% 29.95 in 10.0 mi NNW 4.6 mph - N/A   Clear
1:15 AM 25.7 °F 21.5 °F 19.4 °F 77% 29.95 in 10.0 mi NW 3.5 mph - N/A   Clear
1:35 AM 25.5 °F 21.3 °F 19.0 °F 76% 29.95 in 10.0 mi NW 3.5 mph - N/A   Clear
1:55 AM 25.0 °F 18.1 °F 18.7 °F 77% 29.95 in 10.0 mi NW 5.8 mph - N/A   Clear
2:15 AM 23.5 °F - 18.3 °F 80% 29.95 in 10.0 mi Calm Calm - N/A   Clear
2:35 AM 20.5 °F 15.6 °F 17.1 °F 87% 29.95 in 7.0 mi ESE 3.5 mph - N/A   Clear
2:55 AM 19.6 °F - 16.3 °F 87% 29.95 in 7.0 mi Calm Calm - N/A   Clear
3:15 AM 21.7 °F - 18.0 °F 85% 29.95 in 7.0 mi Calm Calm - N/A   Clear
3:35 AM 19.8 °F - 16.5 °F 87% 29.95 in 7.0 mi Calm Calm - N/A   Clear
3:55 AM 20.3 °F - 17.4 °F 89% 29.96 in 7.0 mi Calm Calm - N/A   Clear
4:15 AM 19.4 °F - 16.7 °F 89% 29.96 in 7.0 mi Calm Calm - N/A   Clear
4:35 AM 20.3 °F - 18.0 °F 91% 29.97 in 7.0 mi Calm Calm - N/A   Clear
4:55 AM 17.6 °F 9.3 °F 15.1 °F 90% 29.97 in 5.0 mi NNW 5.8 mph - N/A   Clear
5:15 AM 21.4 °F 16.6 °F 17.4 °F 85% 29.96 in 7.0 mi North 3.5 mph - N/A   Clear
5:35 AM 20.8 °F - 16.9 °F 85% 29.96 in 7.0 mi Calm Calm - N/A   Clear
5:55 AM 20.5 °F 12.8 °F 15.8 °F 82% 29.96 in 7.0 mi NW 5.8 mph - N/A   Clear
6:15 AM 21.2 °F 16.4 °F 16.5 °F 82% 29.97 in 7.0 mi NW 3.5 mph - N/A   Clear
6:35 AM 19.9 °F - 15.6 °F 83% 29.97 in 7.0 mi Calm Calm - N/A   Clear
6:55 AM 21.0 °F 16.2 °F 15.8 °F 80% 29.96 in 7.0 mi NNW 3.5 mph - N/A   Clear
7:15 AM 21.0 °F - 15.6 °F 80% 29.96 in 7.0 mi Calm Calm - N/A   Clear
7:35 AM 19.2 °F - 14.7 °F 83% 29.96 in 7.0 mi Calm Calm - N/A   Clear
7:55 AM 19.6 °F - 14.9 °F 82% 29.96 in 7.0 mi Calm Calm - N/A   Clear
8:15 AM 21.2 °F 14.9 °F 16.3 °F 82% 29.97 in 7.0 mi SW 4.6 mph - N/A   Clear
8:35 AM 23.0 °F 18.4 °F 17.4 °F 79% 29.97 in 7.0 mi WSW 3.5 mph - N/A   Clear
8:55 AM 24.8 °F 19.1 °F 18.3 °F 76% 29.96 in 7.0 mi SW 4.6 mph - N/A   Clear
9:15 AM 27.5 °F - 19.4 °F 72% 29.96 in 7.0 mi Calm Calm - N/A   Clear
9:35 AM 28.6 °F - 19.4 °F 69% 29.96 in 10.0 mi Calm Calm - N/A   Clear
9:55 AM 30.2 °F - 19.8 °F 65% 29.96 in 10.0 mi Calm Calm - N/A   Clear
10:15 AM 32.0 °F - 20.3 °F 62% 29.95 in 10.0 mi Calm Calm - N/A   Clear
10:35 AM 33.3 °F - 19.4 °F 57% 29.94 in 10.0 mi Calm Calm - N/A   Clear
10:55 AM 35.1 °F - 20.3 °F 55% 29.93 in 10.0 mi Calm Calm - N/A   Clear
11:15 AM 36.0 °F - 22.6 °F 58% 29.93 in 10.0 mi Calm Calm - N/A   Clear
11:35 AM 37.4 °F - 23.2 °F 57% 29.92 in 10.0 mi Calm Calm - N/A   Clear
11:55 AM 38.1 °F - 23.7 °F 56% 29.91 in 10.0 mi Calm Calm - N/A   Clear
12:15 PM 38.3 °F - 23.4 °F 55% 29.89 in 10.0 mi Calm Calm - N/A   Clear
12:35 PM 40.3 °F - 22.8 °F 50% 29.88 in 10.0 mi Calm Calm - N/A   Clear
12:55 PM 41.0 °F - 22.8 °F 48% 29.88 in 10.0 mi Calm Calm - N/A   Clear
1:35 PM 42.8 °F 39.3 °F 22.5 °F 45% 29.86 in 10.0 mi West 5.8 mph - N/A   Clear
1:55 PM 42.8 °F 38.0 °F 21.4 °F 43% 29.85 in 10.0 mi West 8.1 mph - N/A   Clear
2:15 PM 42.8 °F 37.0 °F 21.9 °F 44% 29.84 in 10.0 mi West 10.4 mph - N/A   Clear
2:35 PM 42.8 °F 38.0 °F 18.9 °F 38% 29.83 in 10.0 mi West 8.1 mph - N/A   Clear
2:55 PM 42.1 °F 37.1 °F 21.2 °F 43% 29.83 in 10.0 mi WSW 8.1 mph - N/A   Clear
3:15 PM 42.1 °F 36.6 °F 21.6 °F 44% 29.82 in 10.0 mi WSW 9.2 mph - N/A   Clear
3:35 PM 41.9 °F 34.6 °F 20.1 °F 42% 29.82 in 10.0 mi WSW 13.8 mph 17.3 mph N/A   Clear
3:55 PM 41.5 °F 35.0 °F 20.5 °F 43% 29.81 in 10.0 mi WSW 11.5 mph - N/A   Clear
4:15 PM 41.0 °F 34.3 °F 21.2 °F 45% 29.80 in 10.0 mi WSW 11.5 mph - N/A   Clear
4:35 PM 41.5 °F 34.6 °F 20.3 °F 43% 29.79 in 10.0 mi WSW 12.7 mph - N/A   Clear
4:55 PM 41.9 °F 36.3 °F 19.8 °F 41% 29.78 in 10.0 mi SW 9.2 mph - N/A   Clear
5:15 PM 39.6 °F 33.0 °F 22.1 °F 50% 29.77 in 10.0 mi SW 10.4 mph - N/A   Clear
5:35 PM 40.5 °F 34.6 °F 19.9 °F 44% 29.77 in 10.0 mi SW 9.2 mph - N/A   Clear
5:55 PM 40.1 °F 34.7 °F 20.3 °F 45% 29.77 in 10.0 mi SW 8.1 mph - N/A   Clear
6:15 PM 39.9 °F 33.4 °F 21.0 °F 47% 29.76 in 10.0 mi SW 10.4 mph - N/A   Clear
6:35 PM 36.7 °F 28.9 °F 23.2 °F 58% 29.76 in 10.0 mi WSW 11.5 mph - N/A   Clear
6:55 PM 35.6 °F 29.2 °F 23.2 °F 61% 29.77 in 10.0 mi WSW 8.1 mph - N/A   Clear
7:15 PM 36.1 °F 28.2 °F 23.4 °F 60% 29.78 in 10.0 mi WSW 11.5 mph - N/A   Clear
7:35 PM 38.3 °F 30.9 °F 23.7 °F 56% 29.78 in 10.0 mi WSW 11.5 mph - N/A   Clear
7:55 PM 36.3 °F 28.9 °F 24.8 °F 63% 29.78 in 10.0 mi WSW 10.4 mph - N/A   Clear
8:15 PM 36.1 °F 29.3 °F 24.8 °F 63% 29.78 in 10.0 mi SW 9.2 mph - N/A   Clear
8:35 PM 36.5 °F 29.7 °F 25.2 °F 64% 29.79 in 10.0 mi WSW 9.2 mph - N/A   Clear
8:55 PM 36.7 °F 28.9 °F 25.7 °F 64% 29.78 in 10.0 mi SW 11.5 mph - N/A   Clear
9:15 PM 36.7 °F 28.4 °F 26.4 °F 66% 29.78 in 10.0 mi SW 12.7 mph - N/A   Clear
9:35 PM 36.5 °F 28.7 °F 26.6 °F 67% 29.78 in 10.0 mi WSW 11.5 mph - N/A   Clear
9:55 PM 36.5 °F 28.7 °F 27.1 °F 69% 29.78 in 10.0 mi WSW 11.5 mph - N/A   Clear
10:15 PM 36.0 °F 28.5 °F 27.1 °F 70% 29.78 in 10.0 mi WSW 10.4 mph - N/A   Clear
10:35 PM 35.2 °F 28.1 °F 27.0 °F 72% 29.78 in 10.0 mi WSW 9.2 mph - N/A   Clear
10:55 PM 36.0 °F 28.5 °F 27.1 °F 70% 29.79 in 10.0 mi WSW 10.4 mph - N/A   Clear
11:15 PM 35.2 °F 27.6 °F 27.1 °F 72% 29.78 in 10.0 mi WSW 10.4 mph - N/A   Clear
11:35 PM 35.1 °F 27.4 °F 27.5 °F 74% 29.79 in 10.0 mi WSW 10.4 mph - N/A   Clear
11:55 PM 33.8 °F 26.4 °F 27.1 °F 77% 29.79 in 10.0 mi WSW 9.2 mph - N/A   Clear